Bradshaw AFB, HI

12:44 AM HST on May 29, 2017 (GMT -1000)
Bradshaw Army Air Field

Weather History for PHSF - September, 2014

Change the Weather History Date:

Monday, September 1, 2014

  Actual Average Record
Temperature  
Mean Temperature 63 °F -  
Max Temperature 74 °F 70 °F 80 °F (2011)
Min Temperature 52 °F 51 °F 44 °F (2013)
Degree Days  
Heating Degree Days 2    
Growing Degree Days 13 (Base 50)    
Moisture  
Dew Point 54 °F    
Average Humidity 78    
Maximum Humidity 94    
Minimum Humidity 48    
Precipitation  
Precipitation 0.00 in - - ()
Sea Level Pressure  
Sea Level Pressure 30.10 in    
Wind  
Wind Speed 5 mph (SSW)    
Max Wind Speed 16 mph    
Max Gust Speed 26 mph    
Visibility 10 miles    
Events      
Averages and records for this station are not official NWS values.
T = Trace of Precipitation, MM = Missing Value Source: NWS Daily Summary

Daily Weather History Graph

Daily Weather History Graph

Search for Another Location

Airport or City:

Trip Planner

Search our weather history database for the weather conditions in past years. The results will help you decide how hot, cold, wet, or windy it might be!

Date:

Astronomy

Sep. 01, 2014 Rise Set
Actual Time 6:06 AM HST 6:37 PM HST
Civil Twilight 5:44 AM HST 6:59 PM HST
Nautical Twilight 5:18 AM HST 7:25 PM HST
Astronomical Twilight 4:52 AM HST 7:51 PM HST
Moon 12:10 PM HST (9/1) 11:41 PM HST (9/1)
Length of Visible Light 13h 14m
Length of Day
12h 30m
Waxing Crescent, 44% of the Moon is Illuminated
Sep 1
Waxing Crescent
Sep 2
First Quarter
Sep 8
Full
Sep 15
Last Quarter
Sep 23
New

Hourly Weather History & Observations

Time (HST) Temp. Dew Point Humidity Pressure Visibility Wind Dir Wind Speed Gust Speed Precip Events Conditions
12:31 AM 59.0 °F 55.4 °F 88% 30.40 in 11.0 mi SSE 4.6 mph - N/A   Overcast
12:41 AM 59.0 °F 55.4 °F 88% 30.40 in 12.0 mi SSE 1.2 mph - N/A   Overcast
12:56 AM 59.2 °F 55.4 °F 87% 30.02 in 12.0 mi SSE 1.2 mph - N/A   Overcast
1:11 AM 59.0 °F 55.4 °F 88% 30.39 in 12.0 mi SE 2.3 mph - N/A   Mostly Cloudy
1:21 AM 59.0 °F 55.4 °F 88% 30.39 in 12.0 mi SSE 3.5 mph - N/A   Overcast
1:56 AM 56.8 °F 54.0 °F 90% 30.02 in 12.0 mi SE 8.1 mph - N/A   Scattered Clouds
2:56 AM 55.4 °F 52.5 °F 90% 30.03 in 10.0 mi ESE 5.8 mph - N/A   Clear
3:56 AM 55.0 °F 52.3 °F 91% 30.02 in 6.0 mi ESE 6.9 mph - N/A   Partly Cloudy
4:56 AM 53.8 °F 49.8 °F 86% 30.04 in 10.0 mi ESE 4.6 mph - N/A   Partly Cloudy
5:56 AM 52.5 °F 48.2 °F 85% 30.05 in 11.0 mi ESE 2.3 mph - N/A   Clear
6:56 AM 56.1 °F 49.8 °F 79% 30.05 in 11.0 mi ESE 2.3 mph - N/A   Clear
7:56 AM 63.7 °F 51.1 °F 64% 30.04 in 11.0 mi West 2.3 mph - N/A   Clear
8:56 AM 66.2 °F 51.3 °F 59% 30.04 in 11.0 mi West 1.2 mph - N/A   Partly Cloudy
9:56 AM 71.1 °F 50.5 °F 48% 30.02 in 12.0 mi West 5.8 mph - N/A   Clear
10:56 AM 73.8 °F 54.1 °F 50% 30.01 in 12.0 mi West 10.4 mph 17.3 mph N/A   Partly Cloudy
11:56 AM 72.3 °F 58.1 °F 61% 30.00 in 10.0 mi WSW 10.4 mph 19.6 mph N/A   Scattered Clouds
12:56 PM 74.3 °F 59.2 °F 59% 29.97 in 10.0 mi WSW 16.1 mph 26.5 mph N/A   Partly Cloudy
1:56 PM 73.0 °F 57.6 °F 58% 29.98 in 11.0 mi WSW 15.0 mph 25.3 mph N/A   Partly Cloudy
2:56 PM 72.0 °F 56.5 °F 58% 29.97 in 10.0 mi WSW 13.8 mph 23.0 mph N/A   Partly Cloudy
3:56 PM 70.5 °F 57.6 °F 63% 29.97 in 10.0 mi WSW 13.8 mph 23.0 mph N/A   Partly Cloudy
4:56 PM 68.4 °F 59.0 °F 72% 29.99 in 10.0 mi WSW 13.8 mph 23.0 mph N/A   Partly Cloudy
5:56 PM 63.5 °F 58.8 °F 85% 30.02 in 10.0 mi WSW 11.5 mph 16.1 mph N/A   Partly Cloudy
6:56 PM 60.8 °F 57.7 °F 90% 30.05 in 7.0 mi WSW 3.5 mph - N/A   Scattered Clouds
7:01 PM 60.8 °F 59.0 °F 94% 30.38 in 7.0 mi WSW 3.5 mph - N/A   Mostly Cloudy
7:21 PM 60.8 °F 57.2 °F 88% 30.38 in 8.0 mi West 1.2 mph - N/A   Mostly Cloudy
7:26 PM 60.8 °F 57.2 °F 88% 30.38 in 8.0 mi WSW 2.3 mph - N/A   Scattered Clouds
7:56 PM 59.9 °F 56.8 °F 90% 30.04 in 8.0 mi West 2.3 mph - N/A   Clear
8:56 PM 56.7 °F 52.5 °F 86% 30.04 in 9.0 mi North 2.3 mph - N/A   Clear
9:56 PM 56.1 °F 50.9 °F 83% 30.04 in 10.0 mi ESE 3.5 mph - N/A   Clear
10:56 PM 55.6 °F 50.9 °F 84% 30.04 in 10.0 mi ESE 4.6 mph - N/A   Clear
11:56 PM 53.2 °F 47.7 °F 81% 30.04 in 10.0 mi ESE 4.6 mph - N/A   Clear